This is the latest recevied weather packets stored in our database for station/object YD2CLX-17. If no packets are shown the sender has not sent any weather packets the latest 1 day(s).
| Time | Temp. | Humidity | Pressure | Rain* | Wind** | Luminosity | Snow |
|---|---|---|---|---|---|---|---|
| 1778076031 | 29.44° C | 92% | 1011 hPa | 0 mm | - | - | - |
| 1778075129 | 29.44° C | 91% | 1011 hPa | 0 mm | - | - | - |
| 1778073329 | 29.44° C | 88% | 1011 hPa | 0 mm | - | - | - |
| 1778072430 | 30° C | 91% | 1011 hPa | 0 mm | - | - | - |
| 1778068831 | 30° C | 90% | 1010 hPa | 0 mm | - | - | - |
| 1778067929 | 30° C | 90% | 1010 hPa | 0 mm | - | - | - |
| 1778067030 | 30° C | 91% | 1010 hPa | 0 mm | - | - | - |
| 1778066129 | 30.56° C | 86% | 1009 hPa | 0 mm | - | - | - |
| 1778064329 | 30.56° C | 89% | 1009 hPa | 0 mm | - | - | - |
| 1778063429 | 30.56° C | 90% | 1009 hPa | 0 mm | - | - | - |
| 1778058029 | 30.56° C | 86% | 1008 hPa | 0 mm | - | - | - |
| 1778037305 | 31.67° C | 81% | 1011 hPa | 0 mm | - | - | - |
| 1778036407 | 31.67° C | 78% | 1011 hPa | 0 mm | - | - | - |
| 1778033705 | 31.67° C | 83% | 1012 hPa | 0 mm | - | - | - |
| 1778032806 | 31.11° C | 81% | 1012 hPa | 0 mm | - | - | - |
| 1778030105 | 29.44° C | 87% | 1012 hPa | 0 mm | - | - | - |
| 1778028305 | 30° C | 87% | 1012 hPa | 0 mm | - | - | - |
| 1778021107 | 27.78° C | 92% | 1011 hPa | 0 mm | - | - | - |
| 1778020205 | 27.78° C | 93% | 1011 hPa | 0 mm | - | - | - |
| 1778011206 | 28.33° C | 93% | 1010 hPa | 0 mm | - | - | - |
| 1778005860 | 26.67° C | 81% | 1010 hPa | 0 mm | - | - | - |
| 1778004960 | 28.33° C | 91% | 1011 hPa | 0 mm | - | - | - |
| 1778003160 | 28.33° C | 92% | 1011 hPa | 0 mm | - | - | - |
| 1778001360 | 28.33° C | 91% | 1012 hPa | 0 mm | - | - | - |
| 1777997760 | 28.33° C | 91% | 1012 hPa | 0 mm | - | - | - |
* Rain latest hour (hover to see other rain measurements)
** Current wind speed in m/s (hover to see current wind gust speed)